Weather History for KAOO - November, 2013

Change the Weather History Date:

Thursday, November 28, 2013

  Actual Average Record
Temperature  
Mean Temperature 23 °F 37 °F  
Max Temperature 27 °F 44 °F 72 °F (1990)
Min Temperature 19 °F 29 °F 8 °F (1950)
Degree Days  
Heating Degree Days 42 28  
Month to date heating degree days 723 645  
Since 1 July heating degree days 1230 1252  
Cooling Degree Days 0 0  
Month to date cooling degree days 0 0  
Year to date cooling degree days 695 522  
Moisture  
Dew Point 16 °F    
Average Humidity 69    
Maximum Humidity 81    
Minimum Humidity 57    
Precipitation  
Precipitation T in 0.10 in 1.42 in (1984)
Month to date precipitation 2.31 3.01  
Year to date precipitation 27.29 29.99  
Sea Level Pressure  
Sea Level Pressure 30.27 in    
Wind  
Wind Speed 9 mph (West)    
Max Wind Speed 25 mph    
Max Gust Speed 37 mph    
Visibility 10 miles    
Events Snow    
T = Trace of Precipitation, MM = Missing Value Source: NWS Daily Summary

Daily Weather History Graph

Daily Weather History Graph

Search for Another Location

Airport or City:

Trip Planner

Search our weather history database for the weather conditions in past years. The results will help you decide how hot, cold, wet, or windy it might be!

Date:

Astronomy

Nov. 28, 2013 Rise Set
Actual Time 7:13 AM EST 4:48 PM EST
Civil Twilight 6:43 AM EST 5:18 PM EST
Nautical Twilight 6:10 AM EST 5:52 PM EST
Astronomical Twilight 5:37 AM EST 6:24 PM EST
Moon 2:13 AM EST (11/28) 1:57 PM EST (11/28)
Length of Visible Light 10h 34m
Length of Day
9h 34m
Waning Crescent, 22% of the Moon is Illuminated
Nov 28
Waning Crescent
Dec 2
New
Dec 9
First Quarter
Dec 17
Full
Dec 25
Last Quarter

Hourly Weather History & Observations

Time (EST) Temp. Windchill Dew Point Humidity Pressure Visibility Wind Dir Wind Speed Gust Speed Precip Events Conditions
12:53 AM 23.0 °F 8.7 °F 15.1 °F 72% 30.06 in 9.0 mi West 18.4 mph 29.9 mph 0.00 in Snow Light Snow
1:48 AM 23.0 °F 11.7 °F 15.8 °F 74% 30.04 in 9.0 mi WNW 11.5 mph 21.9 mph 0.00 in Snow Light Snow
1:53 AM 23.0 °F 7.2 °F 15.1 °F 72% 30.10 in 9.0 mi West 23.0 mph 29.9 mph 0.00 in Snow Light Snow
2:00 AM 23.0 °F 8.3 °F 15.1 °F 72% 30.05 in 7.0 mi West 19.6 mph 29.9 mph 0.00 in Snow Light Snow
2:19 AM 23.0 °F 9.6 °F 14.0 °F 68% 30.06 in 10.0 mi WNW 16.1 mph 24.2 mph 0.00 in   Overcast
2:27 AM 23.0 °F 10.1 °F 14.0 °F 68% 30.07 in 10.0 mi West 15.0 mph 27.6 mph 0.00 in   Overcast
2:35 AM 23.0 °F 9.2 °F 14.0 °F 68% 30.07 in 10.0 mi WNW 17.3 mph 32.2 mph 0.00 in   Overcast
2:53 AM 23.0 °F 10.6 °F 14.0 °F 68% 30.14 in 10.0 mi WNW 13.8 mph 24.2 mph 0.00 in   Overcast
3:53 AM 23.0 °F 8.3 °F 14.0 °F 68% 30.16 in 10.0 mi WNW 19.6 mph 34.5 mph 0.00 in   Overcast
4:30 AM 21.9 °F 7.3 °F 14.0 °F 72% 30.11 in 10.0 mi WNW 18.4 mph 26.5 mph N/A   Overcast
4:53 AM 21.9 °F 9.8 °F 14.0 °F 72% 30.19 in 10.0 mi WNW 12.7 mph - N/A   Overcast
5:53 AM 21.0 °F 9.9 °F 12.9 °F 71% 30.23 in 10.0 mi West 10.4 mph 24.2 mph N/A   Mostly Cloudy
6:02 AM 21.0 °F 8.1 °F 12.0 °F 68% 30.16 in 10.0 mi WNW 13.8 mph - N/A   Scattered Clouds
6:53 AM 19.9 °F 9.3 °F 10.9 °F 68% 30.28 in 10.0 mi West 9.2 mph 18.4 mph N/A   Clear
7:53 AM 19.0 °F 10.0 °F 12.0 °F 74% 30.31 in 10.0 mi SW 6.9 mph - N/A   Clear
8:53 AM 21.0 °F 11.4 °F 12.9 °F 71% 30.35 in 10.0 mi WSW 8.1 mph - N/A   Clear
9:53 AM 23.0 °F 10.6 °F 15.1 °F 72% 30.37 in 10.0 mi West 13.8 mph - N/A   Clear
10:53 AM 23.0 °F 9.6 °F 15.1 °F 72% 30.39 in 10.0 mi West 16.1 mph - N/A   Clear
11:53 AM 25.0 °F 13.1 °F 15.1 °F 66% 30.38 in 10.0 mi West 13.8 mph - N/A   Clear
12:53 PM 26.1 °F 15.6 °F 14.0 °F 60% 30.36 in 10.0 mi WSW 11.5 mph - N/A   Scattered Clouds
1:53 PM 27.0 °F 16.1 °F 15.1 °F 61% 30.35 in 10.0 mi West 12.7 mph - N/A   Mostly Cloudy
2:53 PM 27.0 °F 18.7 °F 16.0 °F 63% 30.36 in 10.0 mi West 8.1 mph - N/A   Overcast
3:53 PM 27.0 °F 19.5 °F 17.1 °F 66% 30.37 in 10.0 mi WSW 6.9 mph - N/A   Overcast
4:53 PM 26.1 °F 20.5 °F 18.0 °F 71% 30.38 in 10.0 mi WSW 4.6 mph - N/A   Overcast
5:53 PM 25.0 °F 19.3 °F 18.0 °F 75% 30.40 in 10.0 mi SW 4.6 mph - N/A   Overcast
6:53 PM 26.1 °F 19.4 °F 19.0 °F 75% 30.43 in 10.0 mi SW 5.8 mph - N/A   Overcast
7:53 PM 26.1 °F - 21.0 °F 81% 30.43 in 10.0 mi Calm Calm - N/A   Overcast
8:53 PM 26.1 °F - 21.0 °F 81% 30.43 in 10.0 mi Calm Calm - N/A   Overcast
9:53 PM 26.1 °F - 21.9 °F 84% 30.43 in 10.0 mi Calm Calm - N/A   Overcast
10:53 PM 26.1 °F - 21.0 °F 81% 30.44 in 10.0 mi Calm Calm - N/A   Overcast
11:53 PM 26.1 °F - 21.9 °F 84% 30.45 in 10.0 mi Calm Calm - N/A   Overcast